Hourly Data Report for October 24, 2019

EUREKA CLIMATE
NUNAVUT
Current Station Operator: ECCC - MSC

79°59'21.000" N
85°56'02.000" W
10.00 m
2401199
71613
NEK

Download Data

Hourly Data (October 2019)
Hourly Data Report for October 24, 2019
TIME Temp Definition
°C
Dew Point Definition
°C
Rel Hum Definition
%
Wind Dir Definition
10's deg

Wind Spd Definition
km/h
Visibility Definition
km
Stn Press Definition
kPa
Hmdx Definition


Wind Chill Definition


Weather Definition


00:00 -7.3 -9.8 82 0 1   101.16   -8 LegendNANA
01:00 -6.9 -9.4 82   0   101.10     LegendNANA
02:00 -6.3 -8.7 83 0 1   101.09   -7 LegendNANA
03:00 -6.0 -8.6 82 13 8   101.07   -10 LegendNANA
04:00 -6.4 -8.5 85 9 10   101.01   -11 LegendNANA
05:00 -6.8 -9.1 83 11 1   100.99   -7 LegendNANA
06:00 -6.6 -8.9 84 6 10   100.93   -11 LegendNANA
07:00 -6.8 -9.5 81 3 10   100.86   -11 LegendNANA
08:00 -9.1 -11.7 82 2 14   100.80   -15 LegendNANA
09:00 -9.0 -11.6 82 5 10   100.76   -14 LegendNANA
10:00 -7.5 -10.1 82 8 3   100.65   -9 LegendNANA
11:00 -6.0 -8.4 83 2 15   100.55   -12 LegendNANA
12:00 -5.5 -8.3 80 1 13   100.46   -11 LegendNANA
13:00 -5.6 -8.8 78 4 9   100.37   -10 LegendNANA
14:00 -5.4 -8.2 81 1 16   100.28   -11 LegendNANA
15:00 -5.6 -8.6 80 1 19   100.22   -12 LegendNANA
16:00 -5.5 -7.8 84 36 14   100.15   -11 LegendNANA
17:00 -5.9 -7.1 91 30 7   100.06   -9 LegendNANA
18:00 -6.1 -8.6 82 32 9   99.95   -10 LegendNANA
19:00 -6.8 -7.8 93 30 16   99.85   -13 LegendNANA
20:00 -6.7 -8.9 84 33 7   99.75   -10 LegendNANA
21:00 -6.7 -7.7 92 29 15   99.66   -13 LegendNANA
22:00 -5.7 -8.7 79 30 13   99.58   -11 LegendNANA
23:00 -6.2 -7.6 89 29 21   99.51   -13 LegendNANA

Notes on Data Quality.

Legend

  • E = Estimated
  • M = Missing
  • NA = Not Available*
  • [empty] = Indicates an unobserved value
Date modified: